GSAT 19

导读

GSAT 19是印度空间研究组织(ISRO)研制的高通量通信卫星,于2017年6月5日由GSLV Mark III火箭发射,是印度当时发射的最重航天器,标志印度航天进入新阶段。卫星配备先进通信载荷,通信能力相当于6-7枚印度传统通信卫星,首次采用国产锂电池供电,设计在轨寿命15年,主要为印度本土及周边区域提供高速通信服务。

基本信息
目录编号:
42747
目录名称:
GSAT 19
国际标识:
2017-031A
轨道中心:
EARTH
卫星名称:
GSAT 19
卫星全名:
--
卫星状态:
在轨 (已飞行3326 天)
发射日期:
2017-06-05 UTC
国别 :
印度 (IN)
星等 :
--
轨道信息
数据来源 国际轨道数据 AOE轨道数据
星历时间 2026-07-14T04:32:09+0800
10小时前
查看轨道信息
2026-07-13T07:00:00+0800
1天前
查看轨道信息
半长轴 42165.065km 42164.756km
偏心率 0.000619 0.0006166
轨道倾角 0.036° 0.033°
近地点辐角 1.066° 359.668°
升交点赤经 87.499° 87.977°
平近点角 199.085° 236.088°
近地点 35760.827km 35760.62km
远地点 35813.029km 35812.618km
周期 1436.114分钟 1436.098分钟
每日圈数 1.002706 1.002717
详细信息
使用方式:
暂无
2D轨道图
3D轨道图
轨道高度分析图
轨道倾角分析图
轨道综合分析图
查看轨道综合分析图